Year,Month,Day,Hour,Minute,Value (Times are PST for temperature in C)
2010,11,22,00,00,-1.30
2010,11,22,00,01,-1.30
2010,11,22,00,02,-1.30
2010,11,22,00,03,-1.30
2010,11,22,00,04,-1.30
2010,11,22,00,05,-1.30
2010,11,22,00,06,-1.40
2010,11,22,00,07,-1.40
2010,11,22,00,08,-1.40
2010,11,22,00,09,-1.40
2010,11,22,00,10,-1.40
2010,11,22,00,11,-1.40
2010,11,22,00,12,-1.40
2010,11,22,00,13,-1.40
2010,11,22,00,14,-1.40
2010,11,22,00,15,-1.40
2010,11,22,00,16,-1.40
2010,11,22,00,17,-1.40
2010,11,22,00,18,-1.40
2010,11,22,00,19,-1.40
2010,11,22,00,20,-1.40
2010,11,22,00,24,-1.40
2010,11,22,00,25,-1.40
2010,11,22,00,26,-1.40
2010,11,22,00,27,-1.40
2010,11,22,00,28,-1.40
2010,11,22,00,29,-1.50
2010,11,22,00,30,-1.50
2010,11,22,00,31,-1.50
2010,11,22,00,32,-1.50
2010,11,22,00,33,-1.50
2010,11,22,00,34,-1.50
2010,11,22,00,35,-1.50
2010,11,22,00,36,-1.50
2010,11,22,00,37,-1.50
2010,11,22,00,38,-1.50
2010,11,22,00,39,-1.50
2010,11,22,00,40,-1.50
2010,11,22,00,41,-1.50
2010,11,22,00,42,-1.50
2010,11,22,00,43,-1.50
2010,11,22,00,44,-1.50
2010,11,22,00,45,-1.50
2010,11,22,00,46,-1.50
2010,11,22,00,47,-1.50
2010,11,22,00,48,-1.50
2010,11,22,00,49,-1.50
2010,11,22,00,50,-1.60
2010,11,22,00,51,-1.60
2010,11,22,00,52,-1.60
2010,11,22,00,53,-1.60
2010,11,22,00,54,-1.60
2010,11,22,00,55,-1.60
2010,11,22,00,56,-1.60
2010,11,22,00,57,-1.60
2010,11,22,00,58,-1.60
2010,11,22,00,59,-1.60
2010,11,22,01,00,-1.60
2010,11,22,01,01,-1.60
2010,11,22,01,02,-1.60
2010,11,22,01,03,-1.60
2010,11,22,01,04,-1.60
2010,11,22,01,05,-1.60
2010,11,22,01,06,-1.60
2010,11,22,01,07,-1.60
2010,11,22,01,08,-1.70
2010,11,22,01,09,-1.70
2010,11,22,01,10,-1.70
2010,11,22,01,11,-1.70
2010,11,22,01,12,-1.70
2010,11,22,01,13,-1.70
2010,11,22,01,14,-1.70
2010,11,22,01,15,-1.70
2010,11,22,01,16,-1.70
2010,11,22,01,17,-1.70
2010,11,22,01,18,-1.70
2010,11,22,01,19,-1.60
2010,11,22,01,20,-1.70
2010,11,22,01,21,-1.60
2010,11,22,01,22,-1.60
2010,11,22,01,23,-1.70
2010,11,22,01,24,-1.60
2010,11,22,01,25,-1.70
2010,11,22,01,26,-1.70
2010,11,22,01,27,-1.70
2010,11,22,01,28,-1.70
2010,11,22,01,29,-1.70
2010,11,22,01,30,-1.70
2010,11,22,01,31,-1.70
2010,11,22,01,32,-1.70
2010,11,22,01,33,-1.70
2010,11,22,01,34,-1.70
2010,11,22,01,35,-1.70
2010,11,22,01,36,-1.70
2010,11,22,01,37,-1.70
2010,11,22,01,38,-1.70
2010,11,22,01,39,-1.70
2010,11,22,01,40,-1.70
2010,11,22,01,41,-1.70
2010,11,22,01,42,-1.70
2010,11,22,01,43,-1.70
2010,11,22,01,44,-1.70
2010,11,22,01,45,-1.70
2010,11,22,01,46,-1.70
2010,11,22,01,47,-1.70
2010,11,22,01,48,-1.70
2010,11,22,01,49,-1.80
2010,11,22,01,50,-1.80
2010,11,22,01,51,-1.80
2010,11,22,01,52,-1.80
2010,11,22,01,53,-1.80
2010,11,22,01,54,-1.80
2010,11,22,01,55,-1.80
2010,11,22,01,56,-1.80
2010,11,22,01,57,-1.80
2010,11,22,01,58,-1.80
2010,11,22,01,59,-1.80
2010,11,22,02,00,-1.80
2010,11,22,02,01,-1.80
2010,11,22,02,02,-1.80
2010,11,22,02,03,-1.80
2010,11,22,02,04,-1.80
2010,11,22,02,05,-1.80
2010,11,22,02,06,-1.80
2010,11,22,02,07,-1.90
2010,11,22,02,08,-1.90
2010,11,22,02,09,-1.90
2010,11,22,02,10,-1.90
2010,11,22,02,11,-1.90
2010,11,22,02,12,-1.90
2010,11,22,02,13,-1.90
2010,11,22,02,14,-1.90
2010,11,22,02,15,-1.90
2010,11,22,02,16,-2.00
2010,11,22,02,17,-2.00
2010,11,22,02,18,-2.00
2010,11,22,02,19,-2.00
2010,11,22,02,20,-2.10
2010,11,22,02,21,-2.10
2010,11,22,02,22,-2.10
2010,11,22,02,23,-2.10
2010,11,22,02,24,-2.10
2010,11,22,02,25,-2.20
2010,11,22,02,26,-2.20
2010,11,22,02,27,-2.20
2010,11,22,02,28,-2.20
2010,11,22,02,29,-2.30
2010,11,22,02,30,-2.30
2010,11,22,02,31,-2.30
2010,11,22,02,32,-2.30
2010,11,22,02,33,-2.30
2010,11,22,02,34,-2.40
2010,11,22,02,35,-2.40
2010,11,22,02,36,-2.40
2010,11,22,02,37,-2.40
2010,11,22,02,38,-2.40
2010,11,22,02,39,-2.40
2010,11,22,02,40,-2.40
2010,11,22,02,41,-2.40
2010,11,22,02,42,-2.40
2010,11,22,02,43,-2.40
2010,11,22,02,44,-2.40
2010,11,22,02,45,-2.40
2010,11,22,02,46,-2.40
2010,11,22,02,47,-2.40
2010,11,22,02,48,-2.40
2010,11,22,02,49,-2.40
2010,11,22,02,50,-2.30
2010,11,22,02,51,-2.30
2010,11,22,02,52,-2.30
2010,11,22,02,53,-2.30
2010,11,22,02,54,-2.30
2010,11,22,02,55,-2.20
2010,11,22,02,56,-2.20
2010,11,22,02,57,-2.20
2010,11,22,02,58,-2.20
2010,11,22,02,59,-2.20
2010,11,22,03,00,-2.20
2010,11,22,03,01,-2.20
2010,11,22,03,02,-2.20
2010,11,22,03,06,-2.20
2010,11,22,03,07,-2.20
2010,11,22,03,08,-2.20
2010,11,22,03,09,-2.10
2010,11,22,03,10,-2.10
2010,11,22,03,11,-2.10
2010,11,22,03,12,-2.10
2010,11,22,03,13,-2.10
2010,11,22,03,14,-2.10
2010,11,22,03,15,-2.10
2010,11,22,03,16,-2.10
2010,11,22,03,17,-2.00
2010,11,22,03,18,-2.10
2010,11,22,03,19,-2.10
2010,11,22,03,20,-2.00
2010,11,22,03,21,-2.00
2010,11,22,03,22,-2.00
2010,11,22,03,23,-2.00
2010,11,22,03,24,-2.00
2010,11,22,03,25,-2.00
2010,11,22,03,26,-2.00
2010,11,22,03,27,-2.00
2010,11,22,03,28,-2.00
2010,11,22,03,29,-2.00
2010,11,22,03,30,-2.00
2010,11,22,03,31,-2.00
2010,11,22,03,32,-2.10
2010,11,22,03,33,-2.10
2010,11,22,03,34,-2.10
2010,11,22,03,35,-2.10
2010,11,22,03,36,-2.10
2010,11,22,03,37,-2.10
2010,11,22,03,38,-2.20
2010,11,22,03,39,-2.20
2010,11,22,03,40,-2.20
2010,11,22,03,41,-2.20
2010,11,22,03,42,-2.30
2010,11,22,03,43,-2.30
2010,11,22,03,44,-2.30
2010,11,22,03,45,-2.30
2010,11,22,03,46,-2.30
2010,11,22,03,47,-2.30
2010,11,22,03,48,-2.30
2010,11,22,03,49,-2.30
2010,11,22,03,50,-2.40
2010,11,22,03,51,-2.40
2010,11,22,03,52,-2.40
2010,11,22,03,53,-2.40
2010,11,22,03,54,-2.40
2010,11,22,03,55,-2.40
2010,11,22,03,56,-2.30
2010,11,22,03,57,-2.30
2010,11,22,03,58,-2.30
2010,11,22,03,59,-2.30
2010,11,22,04,00,-2.20
2010,11,22,04,01,-2.20
2010,11,22,04,02,-2.20
2010,11,22,04,03,-2.20
2010,11,22,04,04,-2.20
2010,11,22,04,05,-2.20
2010,11,22,04,06,-2.20
2010,11,22,04,07,-2.20
2010,11,22,04,08,-2.20
2010,11,22,04,09,-2.20
2010,11,22,04,10,-2.20
2010,11,22,04,11,-2.20
2010,11,22,04,12,-2.20
2010,11,22,04,13,-2.20
2010,11,22,04,14,-2.20
2010,11,22,04,15,-2.20
2010,11,22,04,16,-2.20
2010,11,22,04,17,-2.20
2010,11,22,04,18,-2.20
2010,11,22,04,19,-2.20
2010,11,22,04,20,-2.20
2010,11,22,04,21,-2.20
2010,11,22,04,22,-2.20
2010,11,22,04,23,-2.20
2010,11,22,04,24,-2.20
2010,11,22,04,25,-2.20
2010,11,22,04,26,-2.20
2010,11,22,04,27,-2.20
2010,11,22,04,28,-2.20
2010,11,22,04,29,-2.20
2010,11,22,04,30,-2.20
2010,11,22,04,31,-2.20
2010,11,22,04,32,-2.20
2010,11,22,04,33,-2.20
2010,11,22,04,34,-2.20
2010,11,22,04,35,-2.20
2010,11,22,04,36,-2.20
2010,11,22,04,37,-2.20
2010,11,22,04,38,-2.20
2010,11,22,04,39,-2.20
2010,11,22,04,40,-2.20
2010,11,22,04,41,-2.20
2010,11,22,04,42,-2.20
2010,11,22,04,43,-2.20
2010,11,22,04,44,-2.20
2010,11,22,04,45,-2.20
2010,11,22,04,46,-2.20
2010,11,22,04,47,-2.20
2010,11,22,04,48,-2.20
2010,11,22,04,49,-2.10
2010,11,22,04,50,-2.10
2010,11,22,04,51,-2.10
2010,11,22,04,52,-2.10
2010,11,22,04,53,-2.10
2010,11,22,04,54,-2.10
2010,11,22,04,55,-2.10
2010,11,22,04,56,-2.10
2010,11,22,04,57,-2.10
2010,11,22,04,58,-2.10
2010,11,22,04,59,-2.10
2010,11,22,05,00,-2.10
2010,11,22,05,01,-2.10
2010,11,22,05,02,-2.10
2010,11,22,05,03,-2.10
2010,11,22,05,04,-2.10
2010,11,22,05,05,-2.10
2010,11,22,05,06,-2.10
2010,11,22,05,07,-2.10
2010,11,22,05,08,-2.00
2010,11,22,05,09,-2.00
2010,11,22,05,10,-2.00
2010,11,22,05,11,-2.00
2010,11,22,05,12,-2.00
2010,11,22,05,13,-2.00
2010,11,22,05,14,-2.00
2010,11,22,05,15,-2.00
2010,11,22,05,16,-2.00
2010,11,22,05,17,-2.00
2010,11,22,05,18,-2.10
2010,11,22,05,19,-2.10
2010,11,22,05,20,-2.10
2010,11,22,05,21,-2.10
2010,11,22,05,22,-2.10
2010,11,22,05,23,-2.10
2010,11,22,05,24,-2.10
2010,11,22,05,25,-2.10
2010,11,22,05,26,-2.10
2010,11,22,05,27,-2.10
2010,11,22,05,28,-2.10
2010,11,22,05,29,-2.10
2010,11,22,05,30,-2.10
2010,11,22,05,31,-2.10
2010,11,22,05,32,-2.00
2010,11,22,05,33,-2.00
2010,11,22,05,34,-2.00
2010,11,22,05,35,-2.00
2010,11,22,05,36,-2.00
2010,11,22,05,37,-2.00
2010,11,22,05,38,-1.90
2010,11,22,05,39,-1.90
2010,11,22,05,40,-1.90
2010,11,22,05,41,-1.90
2010,11,22,05,42,-1.90
2010,11,22,05,43,-1.90
2010,11,22,05,44,-1.90
2010,11,22,05,45,-1.90
2010,11,22,05,46,-2.00
2010,11,22,05,47,-2.00
2010,11,22,05,48,-2.00
2010,11,22,05,49,-2.00
2010,11,22,05,50,-2.00
2010,11,22,05,51,-2.00
2010,11,22,05,52,-2.00
2010,11,22,05,53,-2.00
2010,11,22,05,54,-2.00
2010,11,22,05,55,-2.00
2010,11,22,05,56,-2.00
2010,11,22,05,57,-2.00
2010,11,22,05,58,-2.00
2010,11,22,05,59,-2.10
2010,11,22,06,00,-2.10
2010,11,22,06,01,-2.10
2010,11,22,06,02,-2.10
2010,11,22,06,03,-2.10
2010,11,22,06,04,-2.10
2010,11,22,06,05,-2.10
2010,11,22,06,06,-2.10
2010,11,22,06,07,-2.10
2010,11,22,06,08,-2.10
2010,11,22,06,09,-2.10
2010,11,22,06,10,-2.10
2010,11,22,06,11,-2.10
2010,11,22,06,12,-2.10
2010,11,22,06,13,-2.10
2010,11,22,06,14,-2.10
2010,11,22,06,15,-2.00
2010,11,22,06,16,-2.00
2010,11,22,06,17,-2.00
2010,11,22,06,18,-2.00
2010,11,22,06,19,-2.00
2010,11,22,06,20,-2.00
2010,11,22,06,21,-2.00
2010,11,22,06,22,-2.00
2010,11,22,06,23,-2.00
2010,11,22,06,24,-2.10
2010,11,22,06,25,-2.00
2010,11,22,06,26,-2.00
2010,11,22,06,27,-2.10
2010,11,22,06,28,-2.00
2010,11,22,06,29,-2.00
2010,11,22,06,30,-2.10
2010,11,22,06,31,-2.10
2010,11,22,06,32,-2.10
2010,11,22,06,33,-2.10
2010,11,22,06,34,-2.10
2010,11,22,06,35,-2.10
2010,11,22,06,36,-2.10
2010,11,22,06,37,-2.10
2010,11,22,06,38,-2.10
2010,11,22,06,39,-2.10
2010,11,22,06,40,-2.10
2010,11,22,06,41,-2.10
2010,11,22,06,42,-2.10
2010,11,22,06,43,-2.10
2010,11,22,06,44,-2.10
2010,11,22,06,45,-2.10
2010,11,22,06,46,-2.10
2010,11,22,06,47,-2.10
2010,11,22,06,48,-2.10
2010,11,22,06,49,-2.10
2010,11,22,06,50,-2.10
2010,11,22,06,51,-2.10
2010,11,22,06,52,-2.10
2010,11,22,06,53,-2.10
2010,11,22,06,54,-2.10
2010,11,22,06,55,-2.10
2010,11,22,06,56,-2.10
2010,11,22,06,57,-2.10
2010,11,22,06,58,-2.10
2010,11,22,06,59,-2.10
2010,11,22,07,00,-2.10
2010,11,22,07,01,-2.10
2010,11,22,07,02,-2.20
2010,11,22,07,03,-2.20
2010,11,22,07,04,-2.20
2010,11,22,07,05,-2.20
2010,11,22,07,06,-2.20
2010,11,22,07,07,-2.20
2010,11,22,07,08,-2.20
2010,11,22,07,09,-2.20
2010,11,22,07,10,-2.20
2010,11,22,07,11,-2.20
2010,11,22,07,12,-2.20
2010,11,22,07,13,-2.20
2010,11,22,07,14,-2.20
2010,11,22,07,15,-2.20
2010,11,22,07,16,-2.20
2010,11,22,07,17,-2.20
2010,11,22,07,18,-2.20
2010,11,22,07,19,-2.20
2010,11,22,07,20,-2.20
2010,11,22,07,21,-2.20
2010,11,22,07,22,-2.20
2010,11,22,07,23,-2.20
2010,11,22,07,24,-2.20
2010,11,22,07,25,-2.20
2010,11,22,07,26,-2.30
2010,11,22,07,27,-2.30
2010,11,22,07,28,-2.30
2010,11,22,07,29,-2.30
2010,11,22,07,30,-2.30
2010,11,22,07,31,-2.30
2010,11,22,07,32,-2.30
2010,11,22,07,33,-2.30
2010,11,22,07,34,-2.30
2010,11,22,07,35,-2.30
2010,11,22,07,36,-2.30
2010,11,22,07,37,-2.30
2010,11,22,07,38,-2.30
2010,11,22,07,39,-2.30
2010,11,22,07,40,-2.30
2010,11,22,07,41,-2.30
2010,11,22,07,42,-2.30
2010,11,22,07,43,-2.30
2010,11,22,07,44,-2.30
2010,11,22,07,45,-2.30
2010,11,22,07,46,-2.30
2010,11,22,07,47,-2.30
2010,11,22,07,48,-2.30
2010,11,22,07,49,-2.30
2010,11,22,07,50,-2.30
2010,11,22,07,51,-2.30
2010,11,22,07,52,-2.30
2010,11,22,07,53,-2.30
2010,11,22,07,54,-2.30
2010,11,22,07,55,-2.30
2010,11,22,07,56,-2.30
2010,11,22,07,57,-2.40
2010,11,22,07,58,-2.30
2010,11,22,07,59,-2.30
2010,11,22,08,00,-2.30
2010,11,22,08,01,-2.30
2010,11,22,08,02,-2.30
2010,11,22,08,03,-2.30
2010,11,22,08,04,-2.30
2010,11,22,08,05,-2.30
2010,11,22,08,06,-2.30
2010,11,22,08,07,-2.30
2010,11,22,08,08,-2.30
2010,11,22,08,09,-2.30
2010,11,22,08,10,-2.30
2010,11,22,08,11,-2.30
2010,11,22,08,12,-2.30
2010,11,22,08,13,-2.30
2010,11,22,08,14,-2.30
2010,11,22,08,15,-2.30
2010,11,22,08,16,-2.30
2010,11,22,08,17,-2.30
2010,11,22,08,18,-2.30
2010,11,22,08,19,-2.20
2010,11,22,08,20,-2.20
2010,11,22,08,21,-2.20
2010,11,22,08,22,-2.30
2010,11,22,08,23,-2.30
2010,11,22,08,24,-2.20
2010,11,22,08,25,-2.30
2010,11,22,08,26,-2.20
2010,11,22,08,27,-2.20
2010,11,22,08,28,-2.20
2010,11,22,08,29,-2.20
2010,11,22,08,30,-2.30
2010,11,22,08,31,-2.30
2010,11,22,08,32,-2.30
2010,11,22,08,33,-2.30
2010,11,22,08,34,-2.30
2010,11,22,08,35,-2.30
2010,11,22,08,36,-2.30
2010,11,22,08,37,-2.30
2010,11,22,08,38,-2.30
2010,11,22,08,39,-2.40
2010,11,22,08,40,-2.40
2010,11,22,08,41,-2.40
2010,11,22,08,42,-2.40
2010,11,22,08,43,-2.40
2010,11,22,08,44,-2.40
2010,11,22,08,45,-2.40
2010,11,22,08,46,-2.40
2010,11,22,08,47,-2.40
2010,11,22,08,48,-2.40
2010,11,22,08,49,-2.40
2010,11,22,08,50,-2.40
2010,11,22,08,51,-2.40
2010,11,22,08,52,-2.40
2010,11,22,08,53,-2.50
2010,11,22,08,54,-2.50
2010,11,22,08,55,-2.50
2010,11,22,08,56,-2.50
2010,11,22,08,57,-2.50
2010,11,22,08,58,-2.50
2010,11,22,08,59,-2.50
2010,11,22,09,00,-2.50
2010,11,22,09,01,-2.50
2010,11,22,09,02,-2.60
2010,11,22,09,03,-2.60
2010,11,22,09,04,-2.60
2010,11,22,09,05,-2.70
2010,11,22,09,06,-2.70
2010,11,22,09,07,-2.70
2010,11,22,09,08,-2.70
2010,11,22,09,09,-2.80
2010,11,22,09,10,-2.90
2010,11,22,09,11,-2.90
2010,11,22,09,12,-3.00
2010,11,22,09,13,-3.10
2010,11,22,09,14,-3.10
2010,11,22,09,15,-3.20
2010,11,22,09,16,-3.20
2010,11,22,09,17,-3.20
2010,11,22,09,18,-3.30
2010,11,22,09,19,-3.30
2010,11,22,09,20,-3.30
2010,11,22,09,21,-3.40
2010,11,22,09,22,-3.40
2010,11,22,09,23,-3.40
2010,11,22,09,24,-3.50
2010,11,22,09,25,-3.60
2010,11,22,09,26,-3.60
2010,11,22,09,27,-3.70
2010,11,22,09,28,-3.80
2010,11,22,09,29,-3.80
2010,11,22,09,30,-3.90
2010,11,22,09,31,-3.90
2010,11,22,09,32,-4.00
2010,11,22,09,33,-4.00
2010,11,22,09,34,-4.10
2010,11,22,09,35,-4.10
2010,11,22,09,36,-4.10
2010,11,22,09,37,-4.20
2010,11,22,09,38,-4.20
2010,11,22,09,39,-4.20
2010,11,22,09,40,-4.20
2010,11,22,09,41,-4.20
2010,11,22,09,42,-4.20
2010,11,22,09,43,-4.20
2010,11,22,09,44,-4.20
2010,11,22,09,45,-4.30
2010,11,22,09,46,-4.30
2010,11,22,09,47,-4.30
2010,11,22,09,48,-4.30
2010,11,22,09,49,-4.30
2010,11,22,09,50,-4.40
2010,11,22,09,51,-4.40
2010,11,22,09,52,-4.40
2010,11,22,09,53,-4.40
2010,11,22,09,54,-4.50
2010,11,22,09,55,-4.50
2010,11,22,09,56,-4.50
2010,11,22,09,57,-4.50
2010,11,22,09,58,-4.50
2010,11,22,09,59,-4.50
2010,11,22,10,00,-4.40
2010,11,22,10,01,-4.40
2010,11,22,10,02,-4.40
2010,11,22,10,03,-4.50
2010,11,22,10,04,-4.50
2010,11,22,10,05,-4.50
2010,11,22,10,06,-4.60
2010,11,22,10,07,-4.60
2010,11,22,10,08,-4.60
2010,11,22,10,09,-4.60
2010,11,22,10,10,-4.60
2010,11,22,10,11,-4.60
2010,11,22,10,12,-4.60
2010,11,22,10,13,-4.60
2010,11,22,10,14,-4.60
2010,11,22,10,15,-4.60
2010,11,22,10,16,-4.60
2010,11,22,10,17,-4.60
2010,11,22,10,18,-4.60
2010,11,22,10,19,-4.60
2010,11,22,10,20,-4.60
2010,11,22,10,21,-4.60
2010,11,22,10,22,-4.60
2010,11,22,10,23,-4.50
2010,11,22,10,24,-4.50
2010,11,22,10,25,-4.50
2010,11,22,10,26,-4.50
2010,11,22,10,27,-4.50
2010,11,22,10,28,-4.50
2010,11,22,10,29,-4.50
2010,11,22,10,30,-4.50
2010,11,22,10,31,-4.50
2010,11,22,10,32,-4.60
2010,11,22,10,33,-4.60
2010,11,22,10,34,-4.60
2010,11,22,10,35,-4.60
2010,11,22,10,36,-4.60
2010,11,22,10,37,-4.60
2010,11,22,10,38,-4.60
2010,11,22,10,39,-4.70
2010,11,22,10,40,-4.70
2010,11,22,10,41,-4.70
2010,11,22,10,42,-4.70
2010,11,22,10,43,-4.70
2010,11,22,10,44,-4.70
2010,11,22,10,45,-4.70
2010,11,22,10,46,-4.70
2010,11,22,10,47,-4.70
2010,11,22,10,48,-4.70
2010,11,22,10,49,-4.70
2010,11,22,10,50,-4.70
2010,11,22,10,51,-4.70
2010,11,22,10,52,-4.70
2010,11,22,10,53,-4.80
2010,11,22,10,54,-4.80
2010,11,22,10,55,-4.80
2010,11,22,10,56,-4.80
2010,11,22,10,57,-4.90
2010,11,22,10,58,-4.90
2010,11,22,10,59,-4.90
2010,11,22,11,00,-4.90
2010,11,22,11,01,-4.90
2010,11,22,11,02,-5.00
2010,11,22,11,03,-5.00
2010,11,22,11,04,-5.00
2010,11,22,11,05,-5.00
2010,11,22,11,06,-5.00
2010,11,22,11,07,-5.00
2010,11,22,11,08,-5.00
2010,11,22,11,09,-5.00
2010,11,22,11,10,-5.00
2010,11,22,11,11,-4.90
2010,11,22,11,12,-4.90
2010,11,22,11,13,-4.90
2010,11,22,11,14,-4.90
2010,11,22,11,15,-4.90
2010,11,22,11,16,-4.90
2010,11,22,11,17,-4.90
2010,11,22,11,18,-4.90
2010,11,22,11,19,-4.90
2010,11,22,11,20,-4.90
2010,11,22,11,21,-4.90
2010,11,22,11,22,-4.90
2010,11,22,11,23,-4.90
2010,11,22,11,24,-4.80
2010,11,22,11,25,-4.80
2010,11,22,11,26,-4.80
2010,11,22,11,27,-4.80
2010,11,22,11,28,-4.80
2010,11,22,11,29,-4.80
2010,11,22,11,30,-4.80
2010,11,22,11,31,-4.90
2010,11,22,11,32,-4.90
2010,11,22,11,33,-4.90
2010,11,22,11,34,-4.90
2010,11,22,11,35,-4.90
2010,11,22,11,36,-4.90
2010,11,22,11,37,-4.90
2010,11,22,11,38,-4.90
2010,11,22,11,39,-4.90
2010,11,22,11,40,-4.90
2010,11,22,11,41,-4.90
2010,11,22,11,42,-4.90
2010,11,22,11,43,-4.90
2010,11,22,11,44,-4.90
2010,11,22,11,45,-4.90
2010,11,22,11,46,-4.90
2010,11,22,11,47,-4.90
2010,11,22,11,48,-4.90
2010,11,22,11,49,-4.90
2010,11,22,11,50,-4.90
2010,11,22,11,51,-4.90
2010,11,22,11,52,-4.90
2010,11,22,11,53,-4.90
2010,11,22,11,54,-4.90
2010,11,22,11,55,-4.90
2010,11,22,11,56,-4.90
2010,11,22,11,57,-5.00
2010,11,22,11,58,-5.00
2010,11,22,11,59,-5.00
2010,11,22,12,00,-5.00
2010,11,22,12,01,-5.00
2010,11,22,12,02,-5.00
2010,11,22,12,03,-5.00
2010,11,22,12,04,-5.00
2010,11,22,12,05,-5.00
2010,11,22,12,06,-5.10
2010,11,22,12,07,-5.10
2010,11,22,12,08,-5.00
2010,11,22,12,09,-5.00
2010,11,22,12,10,-5.00
2010,11,22,12,11,-5.00
2010,11,22,12,12,-5.00
2010,11,22,12,13,-5.00
2010,11,22,12,14,-5.00
2010,11,22,12,15,-5.10
2010,11,22,12,16,-5.10
2010,11,22,12,17,-5.10
2010,11,22,12,18,-5.10
2010,11,22,12,19,-5.10
2010,11,22,12,20,-5.20
2010,11,22,12,21,-5.20
2010,11,22,12,22,-5.20
2010,11,22,12,23,-5.20
2010,11,22,12,24,-5.20
2010,11,22,12,25,-5.20
2010,11,22,12,26,-5.10
2010,11,22,12,27,-5.10
2010,11,22,12,28,-5.10
2010,11,22,12,29,-5.10
2010,11,22,12,30,-5.10
2010,11,22,12,31,-5.10
2010,11,22,12,32,-5.00
2010,11,22,12,33,-5.00
2010,11,22,12,34,-5.00
2010,11,22,12,35,-5.00
2010,11,22,12,36,-5.00
2010,11,22,12,37,-5.10
2010,11,22,12,38,-5.10
2010,11,22,12,39,-5.10
2010,11,22,12,40,-5.10
2010,11,22,12,41,-5.10
2010,11,22,12,42,-5.10
2010,11,22,12,43,-5.10
2010,11,22,12,44,-5.10
2010,11,22,12,45,-5.10
2010,11,22,12,46,-5.10
2010,11,22,12,47,-5.10
2010,11,22,12,48,-5.10
2010,11,22,12,49,-5.10
2010,11,22,12,50,-5.00
2010,11,22,12,51,-5.00
2010,11,22,12,52,-5.00
2010,11,22,12,53,-5.00
2010,11,22,12,54,-4.90
2010,11,22,12,55,-4.90
2010,11,22,12,56,-4.90
2010,11,22,12,57,-4.80
2010,11,22,12,58,-4.80
2010,11,22,12,59,-4.80
2010,11,22,13,00,-4.90
2010,11,22,13,01,-4.90
2010,11,22,13,02,-5.00
2010,11,22,13,03,-5.00
2010,11,22,13,04,-5.00
2010,11,22,13,05,-5.00
2010,11,22,13,06,-5.00
2010,11,22,13,07,-5.00
2010,11,22,13,08,-5.00
2010,11,22,13,09,-5.10
2010,11,22,13,10,-5.10
2010,11,22,13,11,-5.10
2010,11,22,13,12,-5.10
2010,11,22,13,13,-5.10
2010,11,22,13,14,-5.10
2010,11,22,13,15,-5.10
2010,11,22,13,16,-5.10
2010,11,22,13,17,-5.10
2010,11,22,13,18,-5.10
2010,11,22,13,19,-5.10
2010,11,22,13,20,-5.10
2010,11,22,13,21,-5.20
2010,11,22,13,22,-5.20
2010,11,22,13,23,-5.20
2010,11,22,13,24,-5.20
2010,11,22,13,25,-5.20
2010,11,22,13,26,-5.20
2010,11,22,13,27,-5.30
2010,11,22,13,28,-5.30
2010,11,22,13,29,-5.30
2010,11,22,13,30,-5.30
2010,11,22,13,31,-5.30
2010,11,22,13,32,-5.30
2010,11,22,13,33,-5.30
2010,11,22,13,34,-5.30
2010,11,22,13,35,-5.30
2010,11,22,13,36,-5.30
2010,11,22,13,37,-5.30
2010,11,22,13,38,-5.30
2010,11,22,13,39,-5.30
2010,11,22,13,40,-5.30
2010,11,22,13,41,-5.30
2010,11,22,13,42,-5.30
2010,11,22,13,43,-5.30
2010,11,22,13,44,-5.30
2010,11,22,13,45,-5.30
2010,11,22,13,46,-5.20
2010,11,22,13,47,-5.20
2010,11,22,13,48,-5.20
2010,11,22,13,49,-5.10
2010,11,22,13,50,-5.10
2010,11,22,13,51,-5.00
2010,11,22,13,52,-5.00
2010,11,22,13,53,-4.90
2010,11,22,13,54,-4.90
2010,11,22,13,55,-4.90
2010,11,22,13,56,-4.80
2010,11,22,13,57,-4.80
2010,11,22,13,58,-4.80
2010,11,22,13,59,-4.80
2010,11,22,14,00,-4.70
2010,11,22,14,01,-4.70
2010,11,22,14,02,-4.60
2010,11,22,14,03,-4.50
2010,11,22,14,04,-4.50
2010,11,22,14,05,-4.40
2010,11,22,14,06,-4.40
2010,11,22,14,07,-4.50
2010,11,22,14,08,-4.50
2010,11,22,14,09,-4.50
2010,11,22,14,10,-4.60
2010,11,22,14,11,-4.60
2010,11,22,14,12,-4.60
2010,11,22,14,13,-4.60
2010,11,22,14,14,-4.50
2010,11,22,14,15,-4.50
2010,11,22,14,16,-4.40
2010,11,22,14,17,-4.40
2010,11,22,14,18,-4.40
2010,11,22,14,19,-4.30
2010,11,22,14,20,-4.30
2010,11,22,14,21,-4.30
2010,11,22,14,22,-4.30
2010,11,22,14,23,-4.30
2010,11,22,14,24,-4.30
2010,11,22,14,25,-4.40
2010,11,22,14,26,-4.40
2010,11,22,14,27,-4.40
2010,11,22,14,28,-4.40
2010,11,22,14,29,-4.40
2010,11,22,14,30,-4.40
2010,11,22,14,31,-4.40
2010,11,22,14,32,-4.40
2010,11,22,14,33,-4.40
2010,11,22,14,34,-4.40
2010,11,22,14,35,-4.50
2010,11,22,14,36,-4.40
2010,11,22,14,37,-4.40
2010,11,22,14,38,-4.40
2010,11,22,14,39,-4.40
2010,11,22,14,40,-4.40
2010,11,22,14,41,-4.30
2010,11,22,14,42,-4.30
2010,11,22,14,43,-4.30
2010,11,22,14,44,-4.20
2010,11,22,14,45,-4.20
2010,11,22,14,46,-4.20
2010,11,22,14,47,-4.10
2010,11,22,14,48,-4.10
2010,11,22,14,49,-4.10
2010,11,22,14,50,-4.00
2010,11,22,14,51,-4.00
2010,11,22,14,52,-3.90
2010,11,22,14,53,-3.90
2010,11,22,14,54,-3.90
2010,11,22,14,55,-3.80
2010,11,22,14,56,-3.80
2010,11,22,14,57,-3.80
2010,11,22,14,58,-3.80
2010,11,22,14,59,-3.70
2010,11,22,15,00,-3.70
2010,11,22,15,01,-3.70
2010,11,22,15,02,-3.70
2010,11,22,15,03,-3.70
2010,11,22,15,04,-3.70
2010,11,22,15,05,-3.70
2010,11,22,15,06,-3.70
2010,11,22,15,07,-3.70
2010,11,22,15,08,-3.70
2010,11,22,15,09,-3.70
2010,11,22,15,10,-3.70
2010,11,22,15,11,-3.70
2010,11,22,15,12,-3.70
2010,11,22,15,13,-3.70
2010,11,22,15,14,-3.70
2010,11,22,15,15,-3.60
2010,11,22,15,16,-3.60
2010,11,22,15,17,-3.60
2010,11,22,15,18,-3.60
2010,11,22,15,19,-3.60
2010,11,22,15,20,-3.60
2010,11,22,15,21,-3.50
2010,11,22,15,22,-3.50
2010,11,22,15,23,-3.40
2010,11,22,15,24,-3.40
2010,11,22,15,25,-3.40
2010,11,22,15,26,-3.40
2010,11,22,15,27,-3.40
2010,11,22,15,28,-3.40
2010,11,22,15,29,-3.40
2010,11,22,15,30,-3.40
2010,11,22,15,31,-3.40
2010,11,22,15,32,-3.50
2010,11,22,15,33,-3.50
2010,11,22,15,34,-3.50
2010,11,22,15,35,-3.50
2010,11,22,15,36,-3.50
2010,11,22,15,37,-3.50
2010,11,22,15,38,-3.50
2010,11,22,15,39,-3.50
2010,11,22,15,40,-3.50
2010,11,22,15,41,-3.50
2010,11,22,15,42,-3.50
2010,11,22,15,43,-3.50
2010,11,22,15,44,-3.40
2010,11,22,15,45,-3.40
2010,11,22,15,46,-3.40
2010,11,22,15,47,-3.30
2010,11,22,15,48,-3.30
2010,11,22,15,49,-3.30
2010,11,22,15,50,-3.30
2010,11,22,15,51,-3.30
2010,11,22,15,52,-3.30
2010,11,22,15,53,-3.30
2010,11,22,15,54,-3.30
2010,11,22,15,55,-3.30
2010,11,22,15,56,-3.30
2010,11,22,15,57,-3.30
2010,11,22,15,58,-3.30
2010,11,22,15,59,-3.30
2010,11,22,16,00,-3.30
2010,11,22,16,01,-3.30
2010,11,22,16,02,-3.30
2010,11,22,16,03,-3.40
2010,11,22,16,04,-3.40
2010,11,22,16,05,-3.40
2010,11,22,16,06,-3.40
2010,11,22,16,07,-3.40
2010,11,22,16,08,-3.40
2010,11,22,16,09,-3.40
2010,11,22,16,10,-3.40
2010,11,22,16,11,-3.40
2010,11,22,16,12,-3.40
2010,11,22,16,13,-3.40
2010,11,22,16,14,-3.40
2010,11,22,16,15,-3.40
2010,11,22,16,16,-3.40
2010,11,22,16,17,-3.40
2010,11,22,16,18,-3.50
2010,11,22,16,19,-3.50
2010,11,22,16,20,-3.50
2010,11,22,16,21,-3.50
2010,11,22,16,22,-3.50
2010,11,22,16,23,-3.50
2010,11,22,16,24,-3.50
2010,11,22,16,25,-3.50
2010,11,22,16,26,-3.50
2010,11,22,16,27,-3.50
2010,11,22,16,28,-3.60
2010,11,22,16,29,-3.60
2010,11,22,16,30,-3.60
2010,11,22,16,31,-3.60
2010,11,22,16,32,-3.60
2010,11,22,16,33,-3.60
2010,11,22,16,34,-3.50
2010,11,22,16,35,-3.50
2010,11,22,16,36,-3.50
2010,11,22,16,37,-3.50
2010,11,22,16,38,-3.50
2010,11,22,16,39,-3.50
2010,11,22,16,40,-3.50
2010,11,22,16,41,-3.50
2010,11,22,16,42,-3.60
2010,11,22,16,43,-3.50
2010,11,22,16,44,-3.60
2010,11,22,16,45,-3.60
2010,11,22,16,46,-3.60
2010,11,22,16,47,-3.60
2010,11,22,16,48,-3.60
2010,11,22,16,49,-3.60
2010,11,22,16,50,-3.60
2010,11,22,16,51,-3.60
2010,11,22,16,52,-3.60
2010,11,22,16,53,-3.60
2010,11,22,16,54,-3.60
2010,11,22,16,55,-3.60
2010,11,22,16,56,-3.60
2010,11,22,16,57,-3.60
2010,11,22,16,58,-3.60
2010,11,22,16,59,-3.60
2010,11,22,17,00,-3.50
2010,11,22,17,01,-3.60
2010,11,22,17,02,-3.60
2010,11,22,17,03,-3.60
2010,11,22,17,04,-3.60
2010,11,22,17,05,-3.60
2010,11,22,17,06,-3.50
2010,11,22,17,07,-3.60
2010,11,22,17,08,-3.60
2010,11,22,17,09,-3.60
2010,11,22,17,10,-3.50
2010,11,22,17,11,-3.60
2010,11,22,17,12,-3.60
2010,11,22,17,13,-3.50
2010,11,22,17,14,-3.60
2010,11,22,17,15,-3.60
2010,11,22,17,16,-3.60
2010,11,22,17,17,-3.60
2010,11,22,17,18,-3.60
2010,11,22,17,19,-3.60
2010,11,22,17,20,-3.60
2010,11,22,17,21,-3.60
2010,11,22,17,22,-3.50
2010,11,22,17,23,-3.50
2010,11,22,17,24,-3.50
2010,11,22,17,25,-3.50